Tracking 30995 objects as of 5-Jul-2025
HD Live streaming from Space Station
objects crossing your sky now

ANSER-FLW2

Track ANSER-FLW2 now!
10-day predictions
ANSER-FLW2 is classified as:


NORAD ID: 58018
Int'l Code: 2023-155C
Perigee: 496.9 km
Apogee: 499.1 km
Inclination: 97.6 °
Period: 94.4 minutes
Semi major axis: 6868 km
RCS: Unknown
Launch date: October 9, 2023
Source: Spain (SPN)
Launch site: FRENCH GUIANA (FRGUI)

Uplink (MHz):
Downlink (MHz): 401.850
Beacon (MHz):
Mode: FM
Call sign:
Status: Unknown

Your satellite tracking list
Your tracking list is empty




NASA's NSSDC Master Catalog

Two Line Element Set (TLE):
1 58018U 23155C   25186.85156770  .00007369  00000-0  29844-3 0  9994
2 58018  97.5850 262.6177 0001542 110.4600 249.6803 15.24975274 95870
Source of the keplerian elements: AFSPC